IK2ILW-6 Weather Reports


time (UTC)temp
F
wind
direction
speed
knots
gust
knots
rain 1hr
in
rain 24hr
in
rain mn
in
humidity
%
barometer
mb
20260507123623 38 95 2.6 3.5 0.16 2.17 0.18 90 1014.2
20260507123130 38 82 2.6 3.5 0.12 2.13 0.17 90 1014.2
20260507122632 38 342 0.9 3.5 0.16 2.13 0.17 90 1014.2
20260507122137 38 348 1.7 7.0 0.20 2.13 0.17 90 1014.2
20260507121640 39 13 3.5 8.7 0.20 2.13 0.17 92 1014.2
20260507121124 39 246 7.0 14.8 0.20 2.13 0.17 94 1014.1
20260507120629 40 338 7.8 14.8 0.24 2.13 0.17 95 1014.1
20260507120132 40 170 3.5 7.0 0.20 2.09 0.16 95 1014.0
20260507115636 39 207 0.9 4.3 0.20 2.09 0.16 94 1014.2
20260507115139 39 125 2.6 6.1 0.20 2.09 0.16 93 1014.0
20260507114628 39 221 1.7 7.0 0.16 2.05 0.15 93 1014.1
20260507114133 39 276 0.9 6.1 0.16 2.05 0.15 92 1014.1
20260507113637 39 101 1.7 7.8 0.12 2.01 0.14 94 1014.0
20260507113142 38 170 4.3 7.8 0.12 2.01 0.14 94 1014.1
20260507112628 38 287 1.7 3.5 0.08 1.97 0.13 93 1014.1
20260507112133 38 309 2.6 7.0 0.04 1.93 0.12 93 1014.0
20260507111638 38 279 4.3 7.8 0.04 1.93 0.12 93 1014.1
20260507111123 39 251 4.3 8.7 0.04 1.93 0.12 94 1014.1
20260507110628 39 266 7.0 8.7 0.00 1.89 0.11 93 1014.1
20260507110131 39 226 1.7 6.1 0.00 1.89 0.11 93 1014.1
20260507105635 39 225 3.5 7.0 0.00 1.89 0.11 92 1014.1
20260507105124 39 196 4.3 8.7 0.00 1.89 0.11 92 1014.0
20260507104627 40 152 3.5 9.6 0.00 1.89 0.11 93 1014.0
20260507104131 40 103 6.1 9.6 0.00 1.89 0.11 95 1014.1
20260507103636 39 180 5.2 8.7 0.00 1.89 0.11 96 1014.1
20260507103140 39 216 5.2 8.7 0.00 1.89 0.11 95 1014.1
20260507102625 39 234 5.2 8.7 0.00 1.89 0.11 95 1014.1
20260507102129 39 167 3.5 7.0 0.00 1.89 0.11 95 1014.0
20260507101633 39 216 4.3 6.1 0.00 1.89 0.11 95 1014.0
20260507101137 39 243 3.5 7.0 0.00 1.89 0.11 94 1014.0
20260507100641 39 209 3.5 7.0 0.00 2.52 0.11 94 1014.1
20260507100130 39 213 3.5 7.0 0.00 2.52 0.11 94 1014.0
20260507095632 39 207 4.3 7.8 0.00 2.52 0.11 95 1014.0
20260507095136 39 200 2.6 7.8 0.00 2.52 0.11 92 1013.9
20260507094640 39 205 2.6 7.8 0.00 2.52 0.11 92 1013.9
20260507094123 39 192 3.5 8.7 0.00 2.52 0.11 92 1013.9
20260507093628 39 109 2.6 8.7 0.00 2.52 0.11 93 1013.9
20260507093131 39 209 4.3 8.7 0.00 2.52 0.11 92 1013.8
20260507092634 40 229 3.5 7.0 0.00 2.52 0.11 92 1013.8
20260507092137 40 200 4.3 7.0 0.00 2.52 0.11 96 1013.8
20260507091641 39 117 0.9 4.3 0.04 2.52 0.11 96 1013.8
20260507091126 38 247 0.9 3.5 0.04 2.52 0.11 96 1013.8
20260507090635 38 232 1.7 4.3 0.04 3.03 0.11 96 1013.8
20260507090140 38 160 2.6 5.2 0.04 3.03 0.11 95 1013.8
20260507085624 38 180 3.5 5.2 0.04 3.03 0.11 96 1013.7
20260507085128 38 209 0.9 2.6 0.04 3.03 0.11 96 1013.7
20260507084634 37 244 0.9 6.1 0.04 3.03 0.11 95 1013.6
20260507084128 38 195 2.6 6.1 0.04 3.03 0.11 95 1013.6
20260507083632 38 158 1.7 6.1 0.04 3.03 0.11 96 1013.5
20260507083135 38 108 1.7 6.1 0.08 3.03 0.11 95 1013.4
20260507082640 37 18 0.9 5.2 0.08 3.03 0.11 95 1013.4
20260507082123 37 170 3.5 5.2 0.08 3.03 0.11 94 1013.4
20260507081628 37 160 3.5 5.2 0.04 2.99 0.10 94 1013.3
20260507081136 38 156 2.6 5.2 0.04 2.99 0.10 93 1013.2
20260507080641 38 177 3.5 4.3 0.04 2.99 0.10 93 1013.2
20260507080124 38 165 1.7 4.3 0.08 2.99 0.10 93 1013.1
20260507075627 38 188 1.7 4.3 0.08 2.99 0.10 93 1013.0
20260507075133 38 143 0.9 4.3 0.08 2.99 0.10 95 1013.1
20260507074635 38 155 0.9 5.2 0.12 2.99 0.10 94 1013.0
20260507074139 37 184 3.5 6.1 0.12 2.99 0.10 93 1013.0
20260507073623 38 236 2.6 4.3 0.16 2.99 0.10 94 1013.0
20260507073128 38 130 0.9 3.5 0.12 2.95 0.09 94 1012.9
20260507072632 38 243 0.9 3.5 0.12 2.95 0.09 94 1013.0
20260507072136 38 163 1.7 4.3 0.12 2.95 0.09 94 1012.9
20260507071625 38 124 0.9 4.3 0.16 2.95 0.09 92 1012.8
20260507071130 38 157 1.7 4.3 0.16 2.95 0.09 92 1012.8
20260507070633 38 246 1.7 3.5 0.12 2.95 0.08 92 1012.7
20260507070137 39 213 0.9 2.6 0.12 2.95 0.08 92 1012.7
20260507065622 39 231 0.9 2.6 0.16 2.95 0.08 91 1012.6
20260507065127 39 202 0.9 3.5 0.16 2.95 0.08 94 1012.6
20260507064632 38 116 0.9 2.6 0.12 2.91 0.07 93 1012.5
20260507064137 38 98 1.7 2.6 0.16 2.91 0.07 93 1012.5
20260507063642 38 135 0.9 2.6 0.12 2.87 0.06 92 1012.5
20260507063126 38 154 0.9 5.2 0.12 2.87 0.06 92 1012.6
20260507062633 38 120 0.9 5.2 0.12 2.87 0.06 91 1012.5
20260507062136 38 180 1.7 2.6 0.12 2.87 0.06 93 1012.5
20260507061641 37 188 1.7 2.6 0.08 2.83 0.05 90 1012.4
20260507061123 37 89 0.0 2.6 0.08 2.83 0.05 90 1012.4
20260507060628 37 90 0.9 2.6 0.08 3.23 0.05 90 1012.3
20260507060132 37 99 1.7 2.6 0.08 3.23 0.05 89 1012.3
20260507055638 38 102 1.7 3.5 0.04 3.19 0.04 89 1012.3
20260507055142 38 74 2.6 3.5 0.04 3.19 0.04 89 1012.3
20260507054627 38 130 0.9 2.6 0.00 3.15 0.03 92 1012.3
20260507054131 37 159 0.9 3.5 0.00 3.15 0.03 92 1012.3
20260507053636 37 186 0.9 3.5 0.00 3.15 0.03 92 1012.2
20260507053126 36 268 0.0 1.7 0.00 3.15 0.03 90 1012.1
20260507052629 36 268 0.9 2.6 0.00 3.15 0.03 91 1012.1
20260507052132 36 268 0.9 2.6 0.00 3.15 0.03 91 1012.0
20260507051636 36 268 0.9 1.7 0.00 3.15 0.03 91 1012.0
20260507051140 36 268 0.9 0.9 0.00 3.15 0.03 91 1011.9
20260507050626 36 268 0.0 2.6 0.00 3.23 0.03 90 1011.9
20260507050130 36 268 0.9 3.5 0.00 3.23 0.03 90 1011.8
20260507045635 36 268 1.7 3.5 0.00 3.23 0.03 90 1011.8
20260507045139 36 261 2.6 3.5 0.00 3.23 0.03 90 1011.7
20260507044624 36 292 0.9 2.6 0.00 3.23 0.03 90 1011.7
20260507044132 36 292 1.7 2.6 0.00 3.23 0.03 90 1011.6
20260507043637 36 284 0.9 4.3 0.00 3.23 0.03 90 1011.7
20260507043141 36 336 1.7 8.7 0.00 3.23 0.03 90 1011.6
20260507042627 36 326 4.3 9.6 0.00 3.23 0.03 90 1011.7
20260507042130 35 333 8.7 9.6 0.00 3.23 0.03 90 1011.7
20260507041635 35 314 5.2 7.8 0.00 3.23 0.03 90 1011.7
20260507041140 35 313 5.2 9.6 0.00 3.23 0.03 90 1011.6
20260507040626 35 296 6.1 10.4 0.00 3.27 0.03 90 1011.6
20260507040129 35 322 7.8 10.4 0.00 3.27 0.03 90 1011.6
20260507035633 35 310 7.0 9.6 0.00 3.27 0.03 91 1011.6
20260507035137 34 321 7.0 9.6 0.00 3.27 0.03 92 1011.7
20260507034625 35 22 2.6 4.3 0.00 3.27 0.03 93 1011.7
20260507034129 35 158 0.9 5.2 0.00 3.27 0.03 92 1011.7
20260507033633 35 205 2.6 5.2 0.00 3.27 0.03 89 1011.7
20260507033137 36 297 0.0 5.2 0.00 3.27 0.03 90 1011.7
20260507032622 35 323 3.5 8.7 0.00 3.27 0.03 90 1011.6
20260507032126 35 349 4.3 11.3 0.00 3.27 0.03 91 1011.6
20260507031630 35 329 7.0 11.3 0.00 3.27 0.03 92 1011.6
20260507031133 34 324 8.7 10.4 0.00 3.27 0.03 94 1011.6
20260507030637 34 22 7.0 8.7 0.04 3.31 0.03 94 1011.7
20260507030142 34 304 2.6 7.0 0.04 3.31 0.03 95 1011.7
20260507025631 34 336 5.2 8.7 0.04 3.31 0.03 96 1011.7
20260507025136 34 328 3.5 10.4 0.04 3.31 0.03 96 1011.7
20260507024641 33 326 7.8 10.4 0.04 3.31 0.03 95 1011.7
20260507024126 34 312 3.5 7.0 0.04 3.31 0.03 96 1011.6
20260507023631 34 246 0.9 3.5 0.04 3.31 0.03 96 1011.5
20260507023136 34 37 1.7 3.5 0.04 3.31 0.03 95 1011.4
20260507022640 34 120 0.0 4.3 0.04 3.31 0.03 95 1011.6
20260507022125 34 121 2.6 13.0 0.04 3.31 0.03 95 1011.5
20260507021629 35 140 2.6 13.0 0.04 3.31 0.03 95 1011.5
20260507021131 35 178 3.5 5.2 0.08 3.31 0.03 95 1011.4
20260507020635 35 19 0.0 2.6 0.04 3.31 0.02 94 1011.3
20260507020123 35 23 1.7 2.6 0.04 3.31 0.02 94 1011.3
20260507015628 35 63 1.7 6.1 0.04 3.31 0.02 94 1011.3
20260507015131 35 132 0.9 9.6 0.04 3.31 0.02 94 1011.2
20260507014635 35 74 4.3 9.6 0.04 3.31 0.02 94 1011.1
20260507014140 36 88 6.1 9.6 0.04 3.31 0.02 94 1011.0
20260507013625 36 259 3.5 7.8 0.04 3.31 0.02 93 1010.9
20260507013128 36 132 4.3 6.1 0.04 3.31 0.02 93 1011.0
20260507012632 36 136 2.6 5.2 0.04 3.31 0.02 92 1011.0
20260507012136 37 76 1.7 2.6 0.04 3.31 0.02 92 1011.0
20260507011640 37 157 0.9 2.6 0.04 3.31 0.02 92 1011.1
20260507011127 37 299 0.0 3.5 0.00 3.27 0.01 92 1011.1
20260507010631 37 305 1.7 3.5 0.00 3.54 0.01 92 1011.2
20260507010135 36 312 1.7 2.6 0.00 3.54 0.01 92 1011.3
20260507005639 36 5 0.9 2.6 0.00 3.54 0.01 92 1011.3
20260507005124 36 19 1.7 2.6 0.00 3.54 0.01 93 1011.3
20260507004628 36 279 1.7 3.5 0.00 3.54 0.01 93 1011.4
20260507004133 36 278 2.6 3.5 0.00 3.54 0.01 92 1011.5
20260507003638 37 310 2.6 3.5 0.00 3.54 0.01 91 1011.5
20260507003123 37 310 1.7 2.6 0.00 3.54 0.01 91 1011.5
20260507002628 37 310 0.9 3.5 0.00 3.54 0.01 91 1011.6
20260507002132 37 47 0.9 5.2 0.04 3.54 0.01 91 1011.7
20260507001640 37 325 3.5 7.0 0.04 3.54 0.01 91 1011.6
20260507001125 36 337 3.5 5.2 0.04 3.54 0.01 92 1011.6
20260507000630 36 266 4.3 5.2 0.04 3.74 0.01 93 1011.7
20260507000135 36 308 3.5 3.5 0.04 3.74 0.01 92 1011.6
20260506235640 36 266 0.9 2.6 0.04 3.74 0.01 92 1011.7
20260506235126 36 266 0.9 2.6 0.04 3.74 0.01 92 1011.6
20260506234630 36 266 0.9 2.6 0.04 3.74 0.01 92 1011.6
20260506234135 36 266 0.9 2.6 0.04 3.74 0.01 92 1011.7
20260506233640 36 266 1.7 2.6 0.04 3.74 0.01 92 1011.7
20260506233125 37 292 0.9 2.6 0.04 3.74 0.01 91 1011.6
20260506232633 37 300 1.7 4.3 0.04 3.74 0.01 91 1011.6
20260506232138 37 241 1.7 6.1 0.00 3.70 0.00 90 1011.6
20260506231642 37 264 2.6 5.2 0.00 3.70 0.00 90 1011.6
20260506231125 37 269 1.7 4.3 0.00 3.70 0.00 90 1011.6
20260506230629 37 347 0.9 4.3 0.00 4.02 0.00 89 1011.5
20260506230134 37 224 1.7 4.3 0.00 4.02 0.00 89 1011.4
20260506225638 37 224 3.5 4.3 0.04 4.02 0.00 88 1011.4
20260506225125 37 191 2.6 5.2 0.04 4.02 0.00 88 1011.4
20260506224629 37 298 1.7 5.2 0.04 4.02 0.00 89 1011.6
20260506224133 37 283 3.5 5.2 0.04 4.02 0.00 89 1011.6
20260506223623 37 15 3.5 6.1 0.04 4.02 0.00 89 1011.5
20260506223128 37 221 1.7 3.5 0.04 4.02 0.00 89 1011.6
20260506222632 37 69 1.7 4.3 0.08 4.02 0.00 89 1011.6
20260506222136 37 328 1.7 4.3 0.08 4.02 0.00 90 1011.7
20260506221641 36 338 2.6 5.2 0.08 4.02 0.00 90 1011.7
20260506221126 36 355 3.5 5.2 0.08 4.02 0.00 91 1011.7
20260506220630 36 10 1.7 4.3 0.08 4.29 1.02 91 1011.7
20260506220134 36 26 3.5 6.1 0.12 4.29 1.02 92 1011.7
20260506215637 36 59 2.6 6.1 0.08 4.25 1.01 93 1011.7
20260506215142 36 46 1.7 6.1 0.08 4.25 1.01 94 1011.6
20260506214625 36 110 2.6 6.1 0.12 4.25 1.01 93 1011.7
20260506214134 36 90 3.5 6.1 0.12 4.25 1.01 93 1011.6
20260506213639 36 155 1.7 5.2 0.12 4.25 1.01 92 1011.7
20260506213125 36 230 1.7 6.1 0.12 4.25 1.01 92 1011.7
20260506212629 36 256 0.9 9.6 0.08 4.21 1.00 92 1011.8
20260506212133 36 257 4.3 11.3 0.12 4.21 1.00 92 1011.7
20260506211637 36 245 8.7 11.3 0.12 4.21 1.00 91 1011.7
20260506211142 37 279 3.5 9.6 0.12 4.21 1.00 91 1011.7
20260506210627 37 260 7.8 10.4 0.16 4.29 1.00 91 1011.6
20260506210131 37 259 7.0 10.4 0.12 4.25 0.99 92 1011.6
20260506205634 37 309 5.2 10.4 0.12 4.25 0.99 92 1011.6
20260506205123 37 298 7.0 10.4 0.16 4.25 0.99 94 1011.7
20260506204627 36 277 2.6 6.1 0.12 4.21 0.98 96 1011.7
20260506204132 36 310 3.5 7.8 0.16 4.21 0.98 96 1011.7
20260506203636 35 343 5.2 10.4 0.16 4.21 0.98 96 1011.6
20260506203141 35 9 7.0 11.3 0.20 4.21 0.98 96 1011.7
20260506202626 35 330 7.0 13.0 0.16 4.17 0.97 95 1011.7
20260506202130 35 333 10.4 13.0 0.16 4.17 0.97 94 1011.6
20260506201635 36 327 3.5 7.0 0.20 4.17 0.97 95 1011.6
20260506201139 36 260 5.2 8.7 0.20 4.17 0.97 95 1011.6
20260506200625 36 229 6.1 8.7 0.16 4.21 0.96 95 1011.5
20260506200130 36 246 2.6 4.3 0.16 4.21 0.96 95 1011.5
20260506195638 36 167 1.7 6.1 0.20 4.21 0.96 95 1011.4
20260506195123 37 155 3.5 7.8 0.16 4.17 0.95 94 1011.3
20260506194628 36 115 4.3 7.8 0.20 4.17 0.95 93 1011.2
20260506194131 36 110 5.2 10.4 0.16 4.13 0.94 92 1011.2
20260506193634 36 117 5.2 10.4 0.16 4.13 0.94 91 1011.2
20260506193138 37 122 2.6 8.7 0.16 4.09 0.93 89 1011.1
20260506192641 37 69 2.6 4.3 0.16 4.09 0.93 89 1010.9
20260506192124 38 163 1.7 5.2 0.16 4.09 0.93 88 1010.9
20260506191629 38 173 1.7 5.2 0.12 4.06 0.92 88 1010.8
20260506191133 38 281 1.7 5.2 0.16 4.06 0.92 88 1010.7
20260506190638 38 339 2.6 5.2 0.16 4.17 0.92 88 1010.7
20260506190127 38 360 2.6 7.8 0.20 4.17 0.92 88 1010.7
20260506185632 37 297 4.3 7.8 0.20 4.13 0.91 89 1010.6
20260506185136 37 360 3.5 5.2 0.24 4.13 0.91 90 1010.4
20260506184640 37 67 3.5 5.2 0.28 4.09 0.90 89 1010.6
20260506184125 37 15 0.9 7.8 0.31 4.09 0.90 90 1010.4
20260506183629 37 337 5.2 7.8 0.35 4.09 0.90 90 1010.4
20260506183134 36 333 1.7 3.5 0.31 4.06 0.89 90 1010.4
20260506182639 36 250 0.9 1.7 0.35 4.06 0.89 91 1010.5
20260506182124 36 250 0.9 4.3 0.35 4.06 0.89 91 1010.5
20260506181628 36 250 1.7 4.3 0.39 4.06 0.89 91 1010.4
20260506181137 36 304 2.6 7.8 0.35 4.02 0.88 90 1010.3
20260506180622 35 346 1.7 7.8 0.39 4.06 0.88 93 1010.2
20260506180128 35 9 3.5 7.8 0.35 4.02 0.87 95 1010.2
20260506175632 35 327 1.7 6.1 0.31 3.98 0.86 96 1010.5
20260506175137 35 36 4.3 6.1 0.28 3.90 0.84 95 1010.2
20260506174642 35 59 1.7 7.0 0.24 3.86 0.83 95 1010.3
20260506174128 34 65 4.3 7.8 0.20 3.82 0.82 95 1010.2
20260506173633 34 62 5.2 7.8 0.20 3.78 0.81 95 1010.1
20260506173136 35 66 4.3 11.3 0.20 3.78 0.81 95 1010.2
20260506172640 35 67 7.0 11.3 0.16 3.74 0.80 95 1010.1
20260506172128 35 49 2.6 7.0 0.20 3.74 0.80 95 1010.1
20260506171631 35 51 1.7 8.7 0.20 3.70 0.79 96 1010.1
20260506171135 35 13 7.0 12.2 0.20 3.66 0.78 95 1009.9
20260506170640 34 10 6.1 13.9 0.20 3.70 0.78 95 1009.9
20260506170124 35 355 9.6 13.9 0.20 3.70 0.78 95 1009.9
20260506165628 35 336 7.8 12.2 0.24 3.70 0.78 93 1009.9
20260506165132 37 19 5.2 9.6 0.20 3.66 0.77 92 1009.6
20260506164636 37 33 3.5 10.4 0.20 3.66 0.77 93 1009.1
20260506164141 37 42 5.2 10.4 0.24 3.66 0.77 95 1009.1
20260506163626 37 97 4.3 8.7 0.20 3.62 0.76 95 1009.2
20260506163132 38 277 5.2 12.2 0.24 3.62 0.76 96 1009.1
20260506162640 38 190 5.2 14.8 0.28 3.62 0.76 95 1008.5
20260506162124 38 355 5.2 26.1 0.24 3.58 0.75 95 1008.9
20260506161629 38 139 11.3 26.1 0.20 3.54 0.74 96 1008.8
20260506161134 38 86 7.8 20.9 0.20 3.50 0.73 97 1008.9
20260506160638 38 117 10.4 23.5 0.20 3.54 0.73 97 1008.8
20260506160124 39 360 12.2 22.6 0.16 3.50 0.72 97 1008.6
20260506155628 39 153 11.3 24.3 0.16 3.50 0.72 97 1008.6
20260506155132 39 219 12.2 28.7 0.16 3.50 0.72 97 1008.4
20260506154636 38 136 16.5 28.7 0.16 3.50 0.72 97 1008.4
20260506154141 38 194 10.4 23.5 0.12 3.46 0.71 97 1008.6
20260506153630 38 294 7.8 20.0 0.12 3.46 0.71 97 1008.2
20260506153134 37 123 12.2 20.0 0.08 3.43 0.70 97 1008.8
20260506152637 37 88 0.9 8.7 0.04 3.39 0.69 97 1009.0
20260506152142 37 121 1.7 23.5 0.04 3.39 0.69 97 1009.0
20260506151626 38 71 9.6 24.3 0.00 3.35 0.68 97 1008.9
20260506151131 39 107 10.4 20.0 0.00 3.35 0.68 97 1008.6
20260506150635 39 304 6.1 13.9 0.00 3.50 0.68 97 1008.8
20260506150139 39 5 8.7 13.9 0.00 3.50 0.68 97 1008.8
20260506145623 39 266 6.1 15.6 0.00 3.50 0.68 97 1009.1
20260506145127 39 98 7.0 15.6 0.00 3.50 0.68 97 1009.2
20260506144631 39 120 9.6 17.4 0.00 3.50 0.68 97 1009.3
20260506144139 39 121 12.2 20.9 0.00 3.50 0.68 97 1009.2
20260506143641 40 132 13.0 20.9 0.00 3.50 0.68 97 1009.2
20260506143126 39 90 9.6 20.0 0.00 3.50 0.68 97 1009.3
20260506142628 39 127 13.0 20.9 0.00 3.50 0.68 97 1009.1
20260506142132 40 131 14.8 20.9 0.00 3.50 0.68 97 1009.6
20260506141634 39 134 5.2 11.3 0.00 3.50 0.68 97 1009.7
20260506141137 40 132 7.8 13.0 0.00 3.50 0.68 97 1009.8
20260506140642 40 128 8.7 14.8 0.04 3.54 0.68 97 1009.7
20260506140127 40 119 7.8 13.0 0.08 3.54 0.68 97 1009.8
20260506135632 39 109 3.5 13.0 0.12 3.54 0.68 97 1009.9
20260506135135 39 217 5.2 15.6 0.12 3.54 0.68 97 1009.9
20260506134625 39 323 10.4 16.5 0.12 3.54 0.68 97 1009.9
20260506134127 39 48 8.7 20.0 0.12 3.54 0.68 97 1009.9
20260506133632 39 130 13.9 20.9 0.12 3.54 0.68 97 1010.0
20260506133136 39 119 13.0 20.9 0.12 3.54 0.68 97 1010.1
20260506132641 39 98 13.0 20.9 0.12 3.54 0.68 97 1009.8
20260506132126 39 121 13.0 18.2 0.12 3.54 0.68 97 1010.0
20260506131631 39 73 7.8 17.4 0.12 3.54 0.68 97 1010.0
20260506131135 38 71 12.2 18.2 0.12 3.54 0.68 97 1010.1
20260506130639 38 152 7.0 14.8 0.08 3.62 0.67 97 1009.9
20260506130122 38 160 11.3 20.0 0.04 3.58 0.66 97 1009.9
20260506125628 39 132 13.9 20.0 0.00 3.54 0.65 97 1009.7
20260506125131 39 132 13.9 22.6 0.00 3.54 0.65 97 1009.9
20260506124635 39 140 12.2 25.2 0.00 3.54 0.65 97 1010.1
20260506124138 39 128 16.5 25.2 0.00 3.54 0.65 97 1009.6